SYRACUSE 3B

Last updated on Oct. 29, 2020, 5:52 a.m. UTC

1 29273U 06033B   20302.41021606 -.00000048  00000-0  00000-0 0  9995
2 29273   0.0138 216.3115 0004739 350.8101 332.5621  1.00269034 52078
UTC
Height (km)
Latitude
Longitude
Inclination
Orbital Period
UTC large
Height (km)
Speed (km/s)
/
Latitude / Longitude
Inclination (degrees)
Orbital Period (minutes)
Azimuth
Elevation
Range (km)
Doppler Factor
iOS Compass Heading
iOS Angle

Next 30 passes for location: Hong Kong

Rise time Rise Azimuth (degrees) Set time Set Azimuth (degrees) Duration Max altitude (degrees)

No matching passes for this satellites